Tracking 30743 objects as of 22-Jun-2025
HD Live streaming from Space Station
objects crossing your sky now

STARLINK-11235

Track STARLINK-11235 now!
10-day predictions
STARLINK-11235 is classified as:


NORAD ID: 60726
Int'l Code: 2024-152G
Perigee: 366.4 km
Apogee: 367.3 km
Inclination: 53.2 °
Period: 91.7 minutes
Semi major axis: 6737 km
RCS: Unknown
Launch date: August 28, 2024
Source: United States (US)
Launch site: AIR FORCE EASTERN TEST RANGE (AFETR)
Your satellite tracking list
Your tracking list is empty




NASA's NSSDC Master Catalog

Two Line Element Set (TLE):
1 60726U 24152G   25173.14369480 -.00000450  00000-0  11371-5 0  9996
2 60726  53.1594 320.6351 0000679  46.3858 313.7216 15.69712860 48040
Source of the keplerian elements: AFSPC